Location: Haulchin
(50.3172°N, 3.4360°E)
Time: 10:51:04
(UTC+00:00)

SJ 16-02 - Pass Details

Date: 23 May 2024
Orbit: 594 x 605 km, 75.0° (Epoch: 14 June)

Event Time Altitude Azimuth Distance (km) Brightness Sun altitude
Exits shadow 01:40:15 13° 160° (SSE) 1,760 3.3 -14.5°
Maximum altitude 01:43:33 31° 102° (ESE) 1,063 2.7 -14.2°
Drops below altitude 10° 01:47:21 10° 40° (NE) 1,940 5.3 -13.9°
Sets 01:49:45 0° 30° (NNE) 2,847 6.8 -13.7°
